START_TIME,STEP,MOV.,M15,t_acc.,M20,t_acc.
1979-03-01 21:00:33.360 ,1,1,0.,24.0,0.,24.0
1979-03-01 21:00:57.360 ,2,1,0.,24.0,0.,24.0
1979-03-01 21:01:21.360 ,3,1,0.,24.0,0.,24.0
1979-03-01 21:01:45.360 ,4,1,0.,24.0,0.,24.0
1979-03-01 21:02:09.360 ,5,1,0.,24.0,0.,24.0
1979-03-01 21:02:33.360 ,6,1,0.,24.0,0.,24.0
1979-03-01 21:02:57.360 ,7,1,0.,24.0,0.,24.0
1979-03-01 21:03:21.360 ,7,1,0.,24.0,0.,24.0
1979-03-01 21:03:45.360 ,6,1,0.,24.0,0.,24.0
1979-03-01 21:04:09.360 ,5,1,0.,24.0,0.,24.0
1979-03-01 21:04:33.360 ,4,1,0.,24.0,0.,24.0
1979-03-01 21:04:57.360 ,3,1,0.,24.0,0.,24.0
1979-03-01 21:05:21.360 ,2,1,0.,24.0,0.,24.0
1979-03-01 21:05:45.360 ,1,1,0.,24.0,0.,24.0
1979-03-01 21:06:09.360 ,0,1,0.,24.0,0.,24.0
1979-03-01 21:06:33.360 ,0,1,0.,24.0,0.,24.0
1979-03-01 21:06:57.360 ,1,1,0.,24.0,0.,24.0
1979-03-01 21:07:21.360 ,2,1,0.,24.0,0.,24.0
1979-03-01 21:07:45.360 ,3,1,0.,24.0,0.,24.0
1979-03-01 21:08:09.360 ,4,1,0.,24.0,0.,24.0
1979-03-01 21:08:33.360 ,5,1,0.,24.0,0.,24.0
1979-03-01 21:08:57.360 ,6,1,0.,24.0,0.,24.0
1979-03-01 21:09:21.360 ,7,1,0.,24.0,0.,24.0
1979-03-01 21:09:45.360 ,7,1,0.,24.0,0.,24.0
1979-03-01 21:10:09.360 ,6,1,0.,24.0,0.,24.0
1979-03-01 21:10:33.360 ,5,1,0.,24.0,0.,24.0
1979-03-01 21:10:57.360 ,4,1,0.,24.0,0.,24.0
1979-03-01 21:11:21.360 ,3,1,0.,24.0,0.,24.0
1979-03-01 21:11:45.360 ,2,1,0.,24.0,0.,24.0
1979-03-01 21:12:09.360 ,1,1,0.,24.0,0.,24.0
1979-03-01 21:12:33.360 ,0,1,0.,24.0,0.,24.0
1979-03-01 21:12:57.360 ,0,1,0.,24.0,0.,24.0
1979-03-01 21:13:21.360 ,1,1,0.,24.0,0.,24.0
1979-03-01 21:13:45.360 ,2,1,0.,24.0,0.,24.0
1979-03-01 21:14:09.360 ,3,1,0.,24.0,0.,24.0
1979-03-01 21:14:33.360 ,4,1,0.,24.0,0.,24.0
1979-03-01 21:14:57.360 ,5,1,0.,24.0,0.,24.0
1979-03-01 21:15:21.360 ,6,1,0.,24.0,0.,24.0
1979-03-01 21:15:45.360 ,7,1,0.,24.0,0.,24.0
1979-03-01 21:16:09.360 ,7,1,0.,24.0,0.,24.0
1979-03-01 21:16:33.360 ,6,1,0.,24.0,0.,24.0
1979-03-01 21:16:57.360 ,5,1,0.,24.0,0.,24.0
1979-03-01 21:17:21.360 ,4,1,0.,24.0,0.,24.0
1979-03-01 21:17:45.360 ,3,1,0.,24.0,0.,24.0
1979-03-01 21:18:09.360 ,2,1,0.,24.0,0.,24.0
1979-03-01 21:18:33.360 ,1,1,0.,24.0,0.,24.0
1979-03-01 21:18:57.360 ,0,1,0.,24.0,0.,24.0
1979-03-01 21:19:21.360 ,0,1,0.,24.0,0.,24.0
1979-03-01 21:19:45.360 ,1,1,0.,24.0,0.,24.0
1979-03-01 21:20:09.360 ,2,1,0.,24.0,0.,24.0
1979-03-01 21:20:33.360 ,3,1,0.,24.0,0.,24.0
1979-03-01 21:20:57.360 ,4,1,0.,24.0,0.,24.0
1979-03-01 21:21:21.360 ,5,1,0.,24.0,0.,24.0
1979-03-01 21:22:09.360 ,7,1,0.,24.0,0.,24.0
1979-03-01 21:22:33.360 ,7,1,0.,24.0,0.,24.0
1979-03-01 21:22:57.360 ,6,1,0.,24.0,0.,24.0
1979-03-01 21:23:21.360 ,0,0,,0,,0
1979-03-01 21:23:45.360 ,0,0,0.,24.0,0.,24.0
1979-03-01 21:24:09.360 ,3,1,0.,24.0,0.,24.0
1979-03-01 21:24:33.360 ,2,1,0.,24.0,0.,24.0
1979-03-01 21:24:57.360 ,1,1,0.,24.0,0.,24.0
1979-03-01 21:25:21.360 ,0,1,0.,24.0,0.,24.0
1979-03-01 21:25:45.360 ,0,1,0.,24.0,0.,24.0
1979-03-01 21:26:09.360 ,1,1,0.,24.0,0.,24.0
1979-03-01 21:26:33.360 ,2,1,0.,24.0,0.,24.0
1979-03-01 21:26:57.360 ,3,1,0.,24.0,0.,24.0
1979-03-01 21:27:21.360 ,4,1,0.,24.0,0.,24.0
1979-03-01 21:27:45.360 ,5,1,0.,24.0,0.,24.0
1979-03-01 21:28:09.360 ,6,1,0.,24.0,0.,24.0
1979-03-01 21:28:33.360 ,7,1,0.,24.0,0.,24.0
1979-03-01 21:28:57.360 ,7,1,0.,24.0,0.,24.0
1979-03-01 21:29:21.360 ,6,1,0.,24.0,0.,24.0
1979-03-01 21:29:45.360 ,5,1,0.,24.0,0.,24.0
1979-03-01 21:30:09.360 ,4,1,0.,24.0,0.,24.0
1979-03-01 21:30:33.360 ,3,1,0.,24.0,0.,24.0
1979-03-01 21:30:57.360 ,2,1,0.,24.0,0.,24.0
1979-03-01 21:31:21.360 ,1,1,0.,24.0,0.,24.0
1979-03-01 21:31:45.360 ,0,1,0.,24.0,0.,24.0
1979-03-01 21:32:09.360 ,0,1,0.,24.0,0.,24.0
1979-03-01 21:32:33.360 ,1,1,0.,24.0,0.,24.0
1979-03-01 21:32:57.360 ,2,1,0.,24.0,0.,24.0
1979-03-01 21:33:21.360 ,3,1,0.,24.0,0.,24.0
1979-03-01 21:33:45.360 ,4,1,0.,24.0,0.,24.0
1979-03-01 21:34:09.360 ,5,1,0.,24.0,0.,24.0
1979-03-01 21:34:33.360 ,6,1,0.,24.0,0.,24.0
1979-03-01 21:34:57.360 ,7,1,0.,24.0,0.,24.0
1979-03-01 21:35:21.360 ,7,1,0.,24.0,0.,24.0
1979-03-01 21:35:45.360 ,6,1,0.,24.0,0.,24.0
1979-03-01 21:36:09.360 ,5,1,0.,24.0,0.,24.0
1979-03-01 21:36:33.360 ,4,1,0.,24.0,0.,24.0
1979-03-01 21:36:57.360 ,3,1,0.,24.0,0.,24.0
1979-03-01 21:37:21.360 ,2,1,0.,24.0,0.,24.0
1979-03-01 21:37:45.360 ,1,1,0.,24.0,0.,24.0
1979-03-01 21:38:09.360 ,0,1,0.,24.0,0.,24.0
1979-03-01 21:38:33.360 ,0,1,0.,24.0,0.,24.0
1979-03-01 21:38:57.360 ,1,1,0.,24.0,0.,24.0
1979-03-01 21:39:21.360 ,2,1,0.,24.0,0.,24.0
1979-03-01 21:39:45.360 ,3,1,0.,24.0,0.,24.0
1979-03-01 21:40:09.360 ,4,1,0.,24.0,0.,24.0
1979-03-01 21:40:33.360 ,5,1,0.,24.0,0.,24.0
1979-03-01 21:40:57.360 ,6,1,0.,24.0,0.,24.0
1979-03-01 21:41:21.360 ,7,1,0.,24.0,0.,24.0
1979-03-01 21:41:45.360 ,7,1,0.,24.0,0.,24.0
1979-03-01 21:42:09.360 ,0,0,0.,24.0,0.,24.0
1979-03-01 21:42:53.760 ,0,0,0.,24.0,0.,24.0
1979-03-01 21:42:57.360 ,4,1,0.,24.0,0.,24.0
1979-03-01 21:43:21.360 ,3,1,0.,24.0,0.,24.0
1979-03-01 21:43:45.360 ,2,1,0.,24.0,0.,24.0
1979-03-01 21:44:09.360 ,1,1,0.,24.0,0.,24.0
1979-03-01 21:44:33.360 ,0,1,0.,24.0,0.,24.0
1979-03-01 21:44:57.360 ,0,1,0.,24.0,0.,24.0
1979-03-01 21:45:21.360 ,1,1,0.,24.0,0.,24.0
1979-03-01 21:45:45.360 ,2,1,0.,24.0,0.,24.0
1979-03-01 21:46:09.360 ,3,1,0.,24.0,0.,24.0
1979-03-01 21:46:33.360 ,4,1,0.,24.0,0.,24.0
1979-03-01 21:46:57.360 ,5,1,0.,24.0,0.,24.0
1979-03-01 21:47:21.360 ,6,1,0.,24.0,0.,24.0
1979-03-01 21:47:45.360 ,7,1,0.,24.0,0.,24.0
1979-03-01 21:48:09.360 ,7,1,0.,24.0,0.,24.0
1979-03-01 21:48:33.360 ,6,1,0.,24.0,0.,24.0
1979-03-01 21:48:57.360 ,5,1,0.,24.0,0.,24.0
1979-03-01 21:49:21.360 ,0,0,,0,,0
1979-03-01 21:49:55.560 ,0,0,0.,24.0,0.,24.0
1979-03-01 21:50:09.360 ,2,1,0.,24.0,0.,24.0
1979-03-01 21:50:33.360 ,1,1,0.,24.0,0.,24.0
1979-03-01 21:50:57.360 ,0,1,0.,24.0,0.,24.0
1979-03-01 21:51:21.360 ,0,1,0.,24.0,0.,24.0
1979-03-01 21:51:45.360 ,1,1,0.,24.0,0.,24.0
1979-03-01 21:52:09.360 ,2,1,0.,24.0,0.,24.0
1979-03-01 21:52:57.360 ,0,0,0.,24.0,0.,24.0
1979-03-01 21:53:21.360 ,5,1,0.,24.0,0.,24.0
1979-03-01 21:53:45.360 ,6,1,0.,24.0,0.,24.0
1979-03-01 21:54:09.360 ,7,1,0.,24.0,0.,24.0
1979-03-01 21:54:33.360 ,7,1,0.,24.0,0.,24.0
1979-03-01 21:54:57.360 ,6,1,0.,24.0,0.,24.0
1979-03-01 21:55:21.360 ,5,1,0.,24.0,0.,24.0
1979-03-01 21:55:45.360 ,4,1,0.,24.0,0.,24.0
1979-03-01 21:56:09.360 ,3,1,0.,24.0,0.,24.0
1979-03-01 21:56:33.360 ,2,1,0.,24.0,0.,24.0
1979-03-01 21:56:57.360 ,1,1,0.,24.0,0.,24.0
1979-03-01 21:57:21.360 ,0,1,0.,24.0,0.,24.0
1979-03-01 21:57:45.360 ,0,1,0.,24.0,0.,24.0
1979-03-01 21:58:09.360 ,1,1,0.,24.0,0.,24.0
1979-03-01 21:58:33.360 ,2,1,0.,24.0,0.,24.0
1979-03-01 21:58:57.360 ,3,1,0.,24.0,0.,24.0
1979-03-01 21:59:21.360 ,4,1,0.,24.0,0.,24.0
1979-03-01 21:59:45.360 ,5,1,0.,24.0,0.,24.0
1979-03-01 22:00:09.360 ,6,1,0.,24.0,0.,24.0
1979-03-01 22:00:33.360 ,7,1,0.,24.0,0.,24.0
1979-03-01 22:00:57.360 ,7,1,0.,24.0,0.,24.0
1979-03-01 22:01:21.360 ,6,1,0.,24.0,0.,24.0
1979-03-01 22:01:45.360 ,5,1,0.,24.0,0.,24.0
1979-03-01 22:02:09.360 ,4,1,0.,24.0,0.,24.0
1979-03-01 22:02:33.360 ,3,1,0.,24.0,0.,24.0
1979-03-01 22:02:57.360 ,2,1,0.,24.0,0.,24.0
1979-03-01 22:03:21.360 ,1,1,0.,24.0,0.,24.0
1979-03-01 22:03:45.360 ,0,1,0.,24.0,0.,24.0
1979-03-01 22:04:09.360 ,0,1,0.,24.0,0.,24.0
1979-03-01 22:04:33.360 ,1,1,0.,24.0,0.,24.0
1979-03-01 22:04:57.360 ,2,1,0.,24.0,0.,24.0
1979-03-01 22:05:21.360 ,3,1,0.,24.0,0.,24.0
1979-03-01 22:05:45.360 ,4,1,0.,24.0,0.,24.0
1979-03-01 22:06:09.360 ,5,1,0.,24.0,0.,24.0
1979-03-01 22:06:33.360 ,6,1,0.,24.0,0.,24.0
1979-03-01 22:06:57.360 ,7,1,0.,24.0,0.,24.0
1979-03-01 22:07:21.360 ,7,1,0.,24.0,0.,24.0
1979-03-01 22:07:45.360 ,6,1,0.,24.0,0.,24.0
1979-03-01 22:08:09.360 ,5,1,0.,24.0,0.,24.0
1979-03-01 22:08:33.360 ,4,1,0.,24.0,0.,24.0
1979-03-01 22:08:57.360 ,3,1,0.,24.0,0.,24.0
1979-03-01 22:09:21.360 ,2,1,0.,24.0,0.,24.0
1979-03-01 22:09:45.360 ,1,1,0.,24.0,0.,24.0
1979-03-01 22:10:09.360 ,0,1,0.,24.0,0.,24.0
1979-03-01 22:10:33.360 ,0,1,0.,24.0,0.,24.0
1979-03-01 22:10:57.360 ,1,1,0.,24.0,0.,24.0
1979-03-01 22:11:21.360 ,2,1,0.,24.0,0.,24.0
1979-03-01 22:11:45.360 ,3,1,0.,24.0,0.,24.0
1979-03-01 22:12:09.360 ,4,1,0.,24.0,0.,24.0
1979-03-01 22:12:33.360 ,5,1,0.,24.0,0.,24.0
1979-03-01 22:12:57.360 ,6,1,0.,24.0,0.,24.0
1979-03-01 22:13:21.360 ,7,1,0.,24.0,0.,24.0
1979-03-01 22:13:45.360 ,7,1,0.,24.0,0.,24.0
1979-03-01 22:14:09.360 ,6,1,0.,24.0,0.,24.0
1979-03-01 22:14:33.360 ,5,1,0.,24.0,0.,24.0
1979-03-01 22:14:57.360 ,4,1,0.,24.0,0.,24.0
1979-03-01 22:15:21.360 ,3,1,0.,24.0,0.,24.0
1979-03-01 22:15:45.360 ,2,1,0.,24.0,0.,24.0
1979-03-01 22:16:09.360 ,1,1,0.,24.0,0.,24.0
1979-03-01 22:16:33.360 ,0,1,0.,24.0,0.,24.0
1979-03-01 22:16:57.360 ,0,1,0.,24.0,0.,24.0
1979-03-01 22:17:21.360 ,1,1,0.,24.0,0.,24.0
1979-03-01 22:17:45.360 ,2,1,0.,24.0,0.,24.0
1979-03-01 22:18:09.360 ,3,1,0.,24.0,0.,24.0
1979-03-01 22:18:33.360 ,4,1,0.,24.0,0.,24.0
1979-03-01 22:18:57.360 ,5,1,0.,24.0,0.,24.0
1979-03-01 22:19:21.360 ,6,1,0.,24.0,0.,24.0
1979-03-01 22:19:45.360 ,7,1,0.,24.0,0.,24.0
1979-03-01 22:20:09.360 ,7,1,0.,24.0,0.,24.0
1979-03-01 22:20:33.360 ,6,1,0.,24.0,0.,24.0
1979-03-01 22:20:57.360 ,5,1,0.,24.0,0.,24.0
1979-03-01 22:21:21.360 ,4,1,0.,24.0,0.,24.0
1979-03-01 22:21:45.360 ,3,1,0.,24.0,0.,24.0
1979-03-01 22:22:09.360 ,2,1,0.,24.0,0.,24.0
1979-03-01 22:22:33.360 ,1,1,0.,24.0,0.,24.0
1979-03-01 22:22:57.360 ,0,1,0.,24.0,0.,24.0
1979-03-01 22:23:21.360 ,0,1,0.,24.0,0.,24.0
1979-03-01 22:23:45.360 ,1,1,0.,24.0,0.,24.0
1979-03-01 22:24:09.360 ,2,1,0.,24.0,0.,24.0
1979-03-01 22:24:33.360 ,3,1,0.,24.0,0.,24.0
1979-03-01 22:24:57.360 ,4,1,0.,24.0,0.,24.0
1979-03-01 22:25:21.360 ,5,1,0.,24.0,0.,24.0
1979-03-01 22:25:45.360 ,6,1,0.,24.0,0.,24.0
1979-03-01 22:26:09.360 ,7,1,0.,24.0,0.,24.0
1979-03-01 22:26:33.360 ,7,1,0.,24.0,0.,24.0
1979-03-01 22:26:57.360 ,6,1,0.,24.0,0.,24.0
1979-03-01 22:27:21.360 ,5,1,0.,24.0,0.,24.0
1979-03-01 22:27:45.360 ,4,1,0.,24.0,0.,24.0
1979-03-01 22:28:09.360 ,3,1,0.,24.0,0.,24.0
1979-03-01 22:28:33.360 ,2,1,0.,24.0,0.,24.0
1979-03-01 22:28:57.360 ,1,1,0.,24.0,0.,24.0
1979-03-01 22:29:21.360 ,0,1,0.,24.0,0.,24.0
1979-03-01 22:29:26.760 ,0,0,0.,24.0,0.,24.0
1979-03-01 22:29:45.360 ,0,1,0.,24.0,0.,24.0
1979-03-01 22:30:09.360 ,1,1,0.,24.0,0.,24.0
1979-03-01 22:30:33.360 ,2,1,0.,24.0,0.,24.0
1979-03-01 22:30:57.360 ,3,1,0.,24.0,0.,24.0
1979-03-01 22:31:21.360 ,4,1,0.,24.0,0.,24.0
1979-03-01 22:31:45.360 ,5,1,0.,24.0,0.,24.0
1979-03-01 22:32:09.360 ,6,1,0.,24.0,0.,24.0
1979-03-01 22:32:33.360 ,7,1,0.,24.0,0.,24.0
1979-03-01 22:32:57.360 ,7,1,0.,24.0,0.,24.0
1979-03-01 22:33:21.360 ,6,1,0.,24.0,0.,24.0
1979-03-01 22:33:55.560 ,5,1,0.,24.0,0.,24.0
1979-03-01 22:34:09.360 ,4,1,0.,24.0,0.,24.0
1979-03-01 22:34:33.360 ,3,1,0.,24.0,0.,24.0
1979-03-01 22:34:57.360 ,0,0,,0,,0
1979-03-01 22:35:48.960 ,0,0,0.,24.0,0.,24.0
1979-03-01 22:36:09.360 ,0,1,0.,24.0,0.,24.0
1979-03-01 22:36:33.360 ,0,0,,0,,0
1979-03-01 22:37:33.960 ,0,0,0.,24.0,0.,24.0
1979-03-01 22:37:45.360 ,4,1,0.,24.0,0.,24.0
1979-03-01 22:38:09.360 ,5,1,0.,24.0,0.,24.0
1979-03-01 22:38:33.360 ,6,1,0.,24.0,0.,24.0
1979-03-01 22:38:57.360 ,7,1,0.,24.0,0.,24.0
1979-03-01 22:39:21.360 ,7,1,0.,24.0,0.,24.0
1979-03-01 22:39:45.360 ,6,1,0.,24.0,0.,24.0
1979-03-01 22:40:09.360 ,5,1,0.,24.0,0.,24.0
1979-03-01 22:40:33.360 ,4,1,0.,24.0,0.,24.0
1979-03-01 22:40:57.360 ,3,1,0.,24.0,0.,24.0
1979-03-01 22:41:21.360 ,2,1,0.,24.0,0.,24.0
1979-03-01 22:41:45.360 ,1,1,0.,24.0,0.,24.0
1979-03-01 22:42:09.360 ,0,1,0.,24.0,0.,24.0
1979-03-01 22:42:33.360 ,0,1,0.,24.0,0.,24.0
1979-03-01 22:42:57.360 ,1,1,0.,24.0,0.,24.0
1979-03-01 22:43:21.360 ,2,1,0.,24.0,0.,24.0
1979-03-01 22:43:45.360 ,3,1,0.,24.0,0.,24.0
1979-03-01 22:44:09.360 ,4,1,0.,24.0,0.,24.0
1979-03-01 22:44:33.360 ,5,1,0.,24.0,0.,24.0
1979-03-01 22:44:57.360 ,6,1,0.,24.0,0.,24.0
1979-03-01 22:45:21.360 ,7,1,0.,24.0,0.,24.0
1979-03-01 22:45:45.360 ,7,1,0.,24.0,0.,24.0
1979-03-01 22:46:09.360 ,6,1,0.,24.0,0.,24.0
1979-03-01 22:46:33.360 ,5,1,0.,24.0,0.,24.0
1979-03-01 22:46:57.360 ,4,1,0.,24.0,0.,24.0
1979-03-01 22:47:21.360 ,3,1,0.,24.0,0.,24.0
1979-03-01 22:47:45.360 ,0,0,,0,,0
1979-03-01 22:47:47.160 ,2,1,0.,24.0,0.,24.0
1979-03-01 22:48:09.360 ,1,1,0.,24.0,0.,24.0
1979-03-01 22:48:33.360 ,0,1,0.,24.0,0.,24.0
1979-03-01 22:48:57.360 ,0,1,0.,24.0,0.,24.0
1979-03-01 22:49:21.360 ,1,1,0.,24.0,0.,24.0
1979-03-01 22:49:45.360 ,2,1,0.,24.0,0.,24.0
1979-03-01 22:50:09.360 ,3,1,0.,24.0,0.,24.0
1979-03-01 22:50:33.360 ,4,1,0.,24.0,0.,24.0
1979-03-01 22:50:57.360 ,5,1,0.,24.0,0.,24.0
1979-03-01 22:51:21.360 ,6,1,0.,24.0,0.,24.0
1979-03-01 22:51:45.360 ,7,1,0.,24.0,0.,24.0
1979-03-01 22:52:09.360 ,7,1,0.,24.0,0.,24.0
1979-03-01 22:52:33.360 ,6,1,0.,24.0,0.,24.0
1979-03-01 22:52:57.360 ,5,1,0.,24.0,0.,24.0
1979-03-01 22:53:21.360 ,4,1,0.,24.0,0.,24.0
1979-03-01 22:53:45.360 ,3,1,0.,24.0,0.,24.0
1979-03-01 22:54:09.360 ,2,1,0.,24.0,0.,24.0
1979-03-01 22:54:33.360 ,1,1,0.,24.0,0.,24.0
1979-03-01 22:54:57.360 ,0,1,0.,24.0,0.,24.0
1979-03-01 22:55:21.360 ,0,1,0.,24.0,0.,24.0
1979-03-01 22:55:45.360 ,1,1,0.,24.0,0.,24.0
1979-03-01 22:56:09.360 ,2,1,0.,24.0,0.,24.0
1979-03-01 22:56:33.360 ,3,1,0.,24.0,0.,24.0
1979-03-01 22:56:57.360 ,4,1,0.,24.0,0.,24.0
1979-03-01 22:57:21.360 ,5,1,0.,24.0,0.,24.0
1979-03-01 22:57:45.360 ,6,1,0.,24.0,0.,24.0
1979-03-01 22:58:09.360 ,7,1,0.,24.0,0.,24.0
1979-03-01 22:58:33.360 ,7,1,0.,24.0,0.,24.0
1979-03-01 22:58:57.360 ,6,1,0.,24.0,0.,24.0
1979-03-01 22:59:21.360 ,5,1,0.,24.0,0.,24.0
1979-03-01 22:59:45.360 ,4,1,0.,24.0,0.,24.0
1979-03-01 23:00:09.360 ,3,1,0.,24.0,0.,24.0
1979-03-01 23:00:33.360 ,2,1,0.,24.0,0.,24.0
1979-03-01 23:00:57.360 ,1,1,0.,24.0,0.,24.0
1979-03-01 23:01:21.360 ,0,1,0.,24.0,0.,24.0
1979-03-01 23:01:45.360 ,0,1,0.,24.0,0.,24.0
1979-03-01 23:02:09.360 ,1,1,0.,24.0,0.,24.0
1979-03-01 23:02:33.360 ,2,1,0.,24.0,0.,24.0
1979-03-01 23:02:57.360 ,3,1,0.,24.0,0.,24.0
1979-03-01 23:03:21.360 ,4,1,0.,24.0,0.,24.0
1979-03-01 23:03:45.360 ,5,1,0.,24.0,0.,24.0
1979-03-01 23:04:09.360 ,6,1,0.,24.0,0.,24.0
1979-03-01 23:04:33.360 ,7,1,0.,24.0,0.,24.0
1979-03-01 23:04:57.360 ,7,1,0.,24.0,0.,24.0
1979-03-01 23:05:21.360 ,6,1,0.,24.0,0.,24.0
1979-03-01 23:05:45.360 ,5,1,0.,24.0,0.,24.0
1979-03-01 23:06:09.360 ,4,1,0.,24.0,0.,24.0
1979-03-01 23:06:33.360 ,3,1,0.,24.0,0.,24.0
1979-03-01 23:06:57.360 ,2,1,0.,24.0,0.,24.0
1979-03-01 23:07:21.360 ,1,1,0.,24.0,0.,24.0
1979-03-01 23:07:45.360 ,0,1,0.,24.0,0.,24.0
1979-03-01 23:08:09.360 ,0,1,0.,24.0,0.,24.0
1979-03-01 23:08:33.360 ,1,1,0.,24.0,0.,24.0
1979-03-01 23:08:57.360 ,2,1,0.,24.0,0.,24.0
1979-03-01 23:09:21.360 ,3,1,0.,24.0,0.,24.0
1979-03-01 23:09:45.360 ,4,1,0.,24.0,0.,24.0
1979-03-01 23:10:09.360 ,5,1,0.,24.0,0.,24.0
1979-03-01 23:10:33.360 ,6,1,0.,24.0,0.,24.0
1979-03-01 23:10:57.360 ,0,0,0.,24.0,0.,24.0
1979-03-01 23:12:33.960 ,0,0,0.,24.0,0.,24.0
1979-03-01 23:12:57.360 ,3,1,0.,24.0,0.,24.0
1979-03-01 23:13:21.360 ,0,0,,0,,0
1979-03-01 23:17:26.760 ,0,0,0.,24.0,0.,24.0
1979-03-01 23:17:45.360 ,7,1,0.,24.0,0.,24.0
1979-03-01 23:18:09.360 ,6,1,0.,24.0,0.,24.0
1979-03-01 23:18:33.360 ,5,1,0.,24.0,0.,24.0
1979-03-01 23:18:57.360 ,4,1,0.,24.0,0.,24.0
1979-03-01 23:19:21.360 ,3,1,0.,24.0,0.,24.0
1979-03-01 23:19:45.360 ,2,1,0.,24.0,0.,24.0
1979-03-01 23:20:09.360 ,1,1,0.,24.0,0.,24.0
1979-03-01 23:20:33.360 ,0,1,0.,24.0,0.,24.0
1979-03-01 23:20:57.360 ,0,1,0.,24.0,0.,24.0
1979-03-01 23:21:21.360 ,1,1,0.,24.0,0.,24.0
1979-03-01 23:21:45.360 ,2,1,0.,24.0,0.,24.0
1979-03-01 23:22:09.360 ,3,1,0.,24.0,0.,24.0
1979-03-01 23:22:33.360 ,4,1,0.,24.0,0.,24.0
1979-03-01 23:22:57.360 ,5,1,0.,24.0,1.,24.0
1979-03-01 23:23:21.360 ,0,0,0.,24.0,0.,24.0
1979-03-01 23:23:45.360 ,7,1,0.,24.0,0.,24.0
1979-03-01 23:24:09.360 ,7,1,0.,24.0,0.,24.0
1979-03-01 23:24:33.360 ,6,1,0.,24.0,0.,24.0
1979-03-01 23:24:57.360 ,5,1,0.,24.0,0.,24.0
1979-03-01 23:25:21.360 ,4,1,0.,24.0,0.,24.0
1979-03-01 23:25:45.360 ,3,1,0.,24.0,0.,24.0
1979-03-01 23:26:09.360 ,2,1,0.,24.0,0.,24.0
1979-03-01 23:26:33.360 ,1,1,0.,24.0,0.,24.0
1979-03-01 23:26:57.360 ,0,1,0.,24.0,0.,24.0
1979-03-01 23:27:21.360 ,0,1,0.,24.0,0.,24.0
1979-03-01 23:27:45.360 ,1,1,0.,24.0,0.,24.0
1979-03-01 23:28:09.360 ,2,1,0.,24.0,0.,24.0
1979-03-01 23:28:33.360 ,3,1,0.,24.0,0.,24.0
1979-03-01 23:28:57.360 ,4,1,0.,24.0,0.,24.0
1979-03-01 23:29:21.360 ,5,1,0.,24.0,0.,24.0
1979-03-01 23:29:45.360 ,6,1,0.,24.0,0.,24.0
1979-03-01 23:30:09.360 ,7,1,0.,24.0,0.,24.0
1979-03-01 23:30:33.360 ,7,1,0.,24.0,0.,24.0
1979-03-01 23:30:57.360 ,6,1,0.,24.0,0.,24.0
1979-03-01 23:31:21.360 ,5,1,0.,24.0,0.,24.0
1979-03-01 23:31:45.360 ,4,1,0.,24.0,0.,24.0
1979-03-01 23:32:09.360 ,3,1,0.,24.0,0.,24.0
1979-03-01 23:32:33.360 ,2,1,0.,24.0,0.,24.0
1979-03-01 23:32:57.360 ,1,1,0.,24.0,0.,24.0
1979-03-01 23:33:21.360 ,0,1,0.,24.0,0.,24.0
1979-03-01 23:33:45.360 ,0,1,0.,24.0,0.,24.0
1979-03-01 23:34:09.360 ,1,1,0.,24.0,0.,24.0
1979-03-01 23:34:33.360 ,2,1,0.,24.0,0.,24.0
1979-03-01 23:34:57.360 ,3,1,0.,24.0,0.,24.0
1979-03-01 23:35:21.360 ,4,1,0.,24.0,0.,24.0
1979-03-01 23:35:45.360 ,5,1,0.,24.0,0.,24.0
1979-03-01 23:36:09.360 ,6,1,0.,24.0,0.,24.0
1979-03-01 23:36:33.360 ,7,1,0.,24.0,0.,24.0
1979-03-01 23:36:57.360 ,7,1,0.,24.0,0.,24.0
1979-03-01 23:37:21.360 ,6,1,0.,24.0,0.,24.0
1979-03-01 23:37:45.360 ,5,1,0.,24.0,0.,24.0
1979-03-01 23:38:09.360 ,4,1,0.,24.0,0.,24.0
1979-03-01 23:38:33.360 ,3,1,0.,24.0,0.,24.0
1979-03-01 23:38:57.360 ,2,1,0.,24.0,0.,24.0
1979-03-01 23:39:21.360 ,1,1,0.,24.0,0.,24.0
1979-03-01 23:39:45.360 ,0,1,0.,24.0,0.,24.0
1979-03-01 23:40:09.360 ,0,1,0.,24.0,0.,24.0
1979-03-01 23:40:33.360 ,1,1,0.,24.0,0.,24.0
1979-03-01 23:40:57.360 ,2,1,0.,24.0,0.,24.0
1979-03-01 23:41:21.360 ,3,1,0.,24.0,0.,24.0
1979-03-01 23:41:45.360 ,4,1,0.,24.0,0.,24.0
1979-03-01 23:42:09.360 ,5,1,0.,24.0,0.,24.0
1979-03-01 23:42:33.360 ,6,1,0.,24.0,0.,24.0
1979-03-01 23:42:57.360 ,7,1,0.,24.0,0.,24.0
1979-03-01 23:43:21.360 ,7,1,0.,24.0,0.,24.0
1979-03-01 23:43:45.360 ,6,1,0.,24.0,0.,24.0
1979-03-01 23:44:09.360 ,5,1,0.,24.0,0.,24.0
1979-03-01 23:44:33.360 ,4,1,0.,24.0,0.,24.0
1979-03-01 23:44:57.360 ,3,1,0.,24.0,0.,24.0
1979-03-01 23:45:21.360 ,2,1,0.,24.0,0.,24.0
1979-03-01 23:45:45.360 ,1,1,0.,24.0,0.,24.0
1979-03-01 23:46:09.360 ,0,1,0.,24.0,0.,24.0
1979-03-01 23:46:33.360 ,0,1,0.,24.0,0.,24.0
1979-03-01 23:46:57.360 ,1,1,0.,24.0,0.,24.0
1979-03-01 23:47:21.360 ,2,1,0.,24.0,0.,24.0
1979-03-01 23:47:45.360 ,3,1,0.,24.0,0.,24.0
1979-03-01 23:48:09.360 ,4,1,0.,24.0,0.,24.0
1979-03-01 23:48:33.360 ,5,1,0.,24.0,0.,24.0
1979-03-01 23:48:57.360 ,6,1,0.,24.0,0.,24.0
1979-03-01 23:49:21.360 ,7,1,0.,24.0,0.,24.0
1979-03-01 23:49:45.360 ,7,1,0.,24.0,0.,24.0
1979-03-01 23:50:09.360 ,6,1,0.,24.0,0.,24.0
1979-03-01 23:50:33.360 ,5,1,0.,24.0,0.,24.0
1979-03-01 23:50:57.360 ,4,1,0.,24.0,0.,24.0
1979-03-01 23:51:21.360 ,3,1,0.,24.0,0.,24.0
1979-03-01 23:51:45.360 ,2,1,0.,24.0,0.,24.0
1979-03-01 23:52:09.360 ,1,1,0.,24.0,0.,24.0
1979-03-01 23:52:33.360 ,0,1,0.,24.0,0.,24.0
1979-03-01 23:52:57.360 ,0,1,0.,24.0,0.,24.0
1979-03-01 23:53:21.360 ,1,1,0.,24.0,0.,24.0
1979-03-01 23:53:45.360 ,2,1,0.,24.0,0.,24.0
1979-03-01 23:54:09.360 ,3,1,0.,24.0,0.,24.0
1979-03-01 23:54:33.360 ,4,1,0.,24.0,0.,24.0
1979-03-01 23:54:57.360 ,5,1,0.,24.0,0.,24.0
1979-03-01 23:55:21.360 ,6,1,0.,24.0,0.,24.0
1979-03-01 23:55:45.360 ,7,1,0.,24.0,0.,24.0
1979-03-01 23:56:09.360 ,7,1,0.,24.0,0.,24.0
1979-03-01 23:56:33.360 ,6,1,0.,24.0,0.,24.0
1979-03-01 23:56:57.360 ,5,1,0.,24.0,0.,24.0
1979-03-01 23:57:21.360 ,4,1,0.,24.0,0.,24.0
1979-03-01 23:57:45.360 ,3,1,0.,24.0,0.,24.0
1979-03-01 23:58:09.360 ,2,1,0.,24.0,0.,24.0
1979-03-01 23:58:33.360 ,1,1,0.,24.0,0.,24.0
1979-03-01 23:58:57.360 ,0,1,0.,24.0,0.,24.0
1979-03-01 23:59:21.360 ,0,1,0.,24.0,0.,24.0
1979-03-01 23:59:45.360 ,1,1,0.,24.0,0.,24.0
1979-03-02 00:00:09.360 ,2,1,1.,24.0,0.,24.0
